| time (UTC) | temp F | wind direction | speed knots | gust knots | rain 1hr in | rain 24hr in | rain mn in | humidity % | barometer mb |
| 20260505200504 | 57 | 0 | 0.0 | 0.0 | 0.00 | 0.01 | 0.01 | 66 | |
| 20260505200004 | 57 | 135 | 0.0 | 0.9 | 0.00 | 0.01 | 0.01 | 66 | |
| 20260505195504 | 58 | 135 | 0.0 | 0.9 | 0.00 | 0.01 | 0.01 | 66 | |
| 20260505195004 | 58 | 135 | 0.0 | 1.7 | 0.00 | 0.01 | 0.01 | 65 | |
| 20260505194504 | 58 | 135 | 0.0 | 1.7 | 0.00 | 0.01 | 0.01 | 64 | |
| 20260505194004 | 58 | 135 | 0.0 | 1.7 | 0.00 | 0.01 | 0.01 | 63 | |
| 20260505193504 | 58 | 135 | 0.0 | 0.9 | 0.00 | 0.01 | 0.01 | 61 | |
| 20260505193004 | 58 | 170 | 0.0 | 0.9 | 0.00 | 0.01 | 0.01 | 60 | |
| 20260505192504 | 58 | 177 | 0.0 | 1.7 | 0.00 | 0.01 | 0.01 | 60 | |
| 20260505192004 | 59 | 175 | 0.0 | 1.7 | 0.00 | 0.01 | 0.01 | 59 | |
| 20260505191504 | 59 | 187 | 0.0 | 1.7 | 0.00 | 0.01 | 0.01 | 59 | |
| 20260505191004 | 59 | 214 | 0.0 | 0.9 | 0.00 | 0.01 | 0.01 | 59 | |
| 20260505190504 | 60 | 227 | 0.0 | 0.9 | 0.00 | 0.01 | 0.01 | 59 | |
| 20260505190004 | 60 | 215 | 0.0 | 1.7 | 0.00 | 0.01 | 0.01 | 59 | |
| 20260505185504 | 60 | 145 | 0.0 | 1.7 | 0.00 | 0.01 | 0.01 | 59 | |
| 20260505185004 | 60 | 125 | 0.0 | 1.7 | 0.00 | 0.01 | 0.01 | 58 | |
| 20260505184504 | 60 | 148 | 0.0 | 1.7 | 0.00 | 0.01 | 0.01 | 57 | |
| 20260505184004 | 61 | 145 | 0.0 | 1.7 | 0.00 | 0.01 | 0.01 | 55 | |
| 20260505183504 | 62 | 133 | 0.0 | 1.7 | 0.00 | 0.01 | 0.01 | 53 | |
| 20260505183005 | 62 | 120 | 0.0 | 1.7 | 0.00 | 0.01 | 0.01 | 50 | |
| 20260505182504 | 63 | 131 | 0.0 | 1.7 | 0.00 | 0.01 | 0.01 | 49 | |
| 20260505182004 | 65 | 147 | 0.0 | 1.7 | 0.00 | 0.01 | 0.01 | 48 | |
| 20260505181504 | 65 | 115 | 0.0 | 1.7 | 0.00 | 0.01 | 0.01 | 49 | |
| 20260505181004 | 65 | 0 | 0.0 | 0.0 | 0.00 | 0.01 | 0.01 | 52 | |
| 20260505180504 | 63 | 148 | 0.0 | 0.9 | 0.00 | 0.01 | 0.01 | 54 | |
| 20260505180004 | 63 | 219 | 0.0 | 1.7 | 0.00 | 0.01 | 0.01 | 54 | |
| 20260505175504 | 62 | 238 | 0.0 | 1.7 | 0.00 | 0.01 | 0.01 | 54 | |
| 20260505175004 | 62 | 255 | 0.0 | 2.6 | 0.00 | 0.01 | 0.01 | 54 | |
| 20260505174504 | 62 | 277 | 0.0 | 3.5 | 0.00 | 0.01 | 0.01 | 53 | |
| 20260505174004 | 62 | 261 | 1.7 | 3.5 | 0.00 | 0.01 | 0.01 | 52 | |
| 20260505173504 | 63 | 208 | 0.9 | 3.5 | 0.00 | 0.01 | 0.01 | 55 | |
| 20260505173004 | 64 | 242 | 0.9 | 2.6 | 0.00 | 0.01 | 0.01 | 57 | |
| 20260505172504 | 64 | 260 | 0.0 | 1.7 | 0.00 | 0.01 | 0.01 | 57 | |
| 20260505172004 | 64 | 169 | 0.0 | 0.9 | 0.00 | 0.01 | 0.01 | 57 | |
| 20260505171504 | 64 | 0 | 0.0 | 0.0 | 0.00 | 0.02 | 0.01 | 57 | |
| 20260505171004 | 64 | 0 | 0.0 | 0.0 | 0.00 | 0.02 | 0.01 | 56 | |
| 20260505170504 | 65 | 153 | 0.0 | 0.9 | 0.00 | 0.02 | 0.01 | 55 | |
| 20260505170004 | 65 | 137 | 0.0 | 1.7 | 0.00 | 0.02 | 0.01 | 55 | |
| 20260505165504 | 65 | 136 | 0.0 | 1.7 | 0.00 | 0.02 | 0.01 | 54 | |
| 20260505165004 | 66 | 135 | 0.0 | 0.9 | 0.00 | 0.02 | 0.01 | 54 | |
| 20260505164504 | 66 | 90 | 0.0 | 0.9 | 0.00 | 0.02 | 0.01 | 53 | |
| 20260505164004 | 66 | 224 | 0.0 | 1.7 | 0.00 | 0.04 | 0.01 | 52 | |
| 20260505163504 | 66 | 214 | 0.0 | 1.7 | 0.00 | 0.04 | 0.01 | 51 | |
| 20260505163004 | 67 | 171 | 0.0 | 0.9 | 0.00 | 0.04 | 0.01 | 50 | |
| 20260505162504 | 67 | 195 | 0.0 | 1.7 | 0.00 | 0.05 | 0.01 | 50 | |
| 20260505162004 | 68 | 195 | 0.0 | 1.7 | 0.00 | 0.06 | 0.01 | 49 | |
| 20260505161504 | 68 | 180 | 0.0 | 1.7 | 0.00 | 0.06 | 0.01 | 49 | |
| 20260505161004 | 68 | 180 | 0.0 | 1.7 | 0.00 | 0.07 | 0.01 | 47 | |
| 20260505160504 | 68 | 195 | 0.0 | 1.7 | 0.00 | 0.08 | 0.01 | 49 | |
| 20260505153004 | 64 | 224 | 0.9 | 1.7 | 0.00 | 0.12 | 0.01 | 62 | |
| 20260505152504 | 64 | 270 | 0.0 | 2.6 | 0.00 | 0.12 | 0.01 | 63 | |
| 20260505152004 | 63 | 278 | 0.0 | 2.6 | 0.00 | 0.12 | 0.01 | 63 | |
| 20260505151504 | 63 | 276 | 0.9 | 2.6 | 0.00 | 0.13 | 0.01 | 63 | |
| 20260505151004 | 63 | 274 | 0.0 | 1.7 | 0.00 | 0.13 | 0.01 | 64 | |
| 20260505150504 | 63 | 275 | 0.9 | 2.6 | 0.00 | 0.13 | 0.01 | 64 | |
| 20260505140504 | 62 | 299 | 3.5 | 8.7 | 0.00 | 0.13 | 0.01 | 62 | |
| 20260505125004 | 73 | 186 | 0.0 | 2.6 | 0.00 | 0.13 | 0.01 | 43 | |
| 20260505124504 | 72 | 204 | 0.9 | 2.6 | 0.00 | 0.13 | 0.01 | 44 | |
| 20260505124004 | 71 | 196 | 0.0 | 2.6 | 0.00 | 0.13 | 0.01 | 44 | |
| 20260505123504 | 71 | 168 | 0.9 | 2.6 | 0.00 | 0.13 | 0.01 | 45 | |
| 20260505123004 | 70 | 11 | 0.0 | 1.7 | 0.00 | 0.13 | 0.01 | 47 | |
| 20260505122504 | 69 | 271 | 0.0 | 1.7 | 0.00 | 0.13 | 0.01 | 49 | |
| 20260505122004 | 69 | 225 | 0.0 | 1.7 | 0.00 | 0.13 | 0.01 | 50 | |
| 20260505121504 | 69 | 93 | 0.0 | 2.6 | 0.00 | 0.13 | 0.01 | 49 | |
| 20260505121004 | 69 | 90 | 0.0 | 2.6 | 0.00 | 0.13 | 0.01 | 50 | |
| 20260505120504 | 70 | 110 | 0.0 | 3.5 | 0.00 | 0.13 | 0.01 | 48 | |
| 20260505120005 | 70 | 143 | 0.0 | 3.5 | 0.00 | 0.13 | 0.01 | 48 | |
| 20260505115504 | 70 | 151 | 0.9 | 3.5 | 0.00 | 0.13 | 0.01 | 51 | |
| 20260505115004 | 70 | 139 | 0.0 | 1.7 | 0.00 | 0.13 | 0.01 | 52 | |
| 20260505114504 | 69 | 106 | 0.0 | 2.6 | 0.00 | 0.13 | 0.01 | 54 | |
| 20260505114004 | 69 | 114 | 0.0 | 2.6 | 0.00 | 0.13 | 0.01 | 55 | |
| 20260505113504 | 69 | 176 | 0.9 | 2.6 | 0.00 | 0.13 | 0.01 | 55 | |
| 20260505113004 | 68 | 160 | 0.9 | 1.7 | 0.00 | 0.13 | 0.01 | 56 | |
| 20260505112504 | 68 | 147 | 0.0 | 1.7 | 0.00 | 0.13 | 0.01 | 59 | |
| 20260505112004 | 67 | 358 | 0.0 | 1.7 | 0.00 | 0.13 | 0.01 | 61 | |
| 20260505111504 | 66 | 308 | 0.0 | 1.7 | 0.00 | 0.13 | 0.01 | 63 | |
| 20260505111004 | 65 | 232 | 0.0 | 1.7 | 0.00 | 0.13 | 0.01 | 66 | |
| 20260505110504 | 64 | 219 | 0.0 | 0.9 | 0.00 | 0.13 | 0.01 | 71 | |
| 20260505102004 | 62 | 277 | 0.0 | 1.7 | 0.00 | 0.13 | 0.01 | 70 | |
| 20260505101504 | 62 | 202 | 0.0 | 0.9 | 0.00 | 0.13 | 0.01 | 71 | |
| 20260505101004 | 62 | 225 | 0.0 | 0.9 | 0.00 | 0.13 | 0.01 | 70 | |
| 20260505100504 | 62 | 319 | 0.0 | 1.7 | 0.00 | 0.13 | 0.01 | 73 | |
| 20260505100004 | 62 | 293 | 0.0 | 1.7 | 0.00 | 0.13 | 0.01 | 73 | |
| 20260505095504 | 61 | 284 | 0.0 | 1.7 | 0.00 | 0.13 | 0.01 | 72 | |
| 20260505095004 | 61 | 270 | 0.0 | 1.7 | 0.00 | 0.13 | 0.01 | 72 | |
| 20260505094504 | 61 | 270 | 0.0 | 1.7 | 0.00 | 0.13 | 0.01 | 72 | |
| 20260505094004 | 61 | 265 | 0.0 | 1.7 | 0.00 | 0.13 | 0.01 | 73 | |
| 20260505093504 | 61 | 143 | 0.0 | 1.7 | 0.00 | 0.13 | 0.01 | 74 | |
| 20260505093004 | 61 | 145 | 0.0 | 1.7 | 0.00 | 0.13 | 0.01 | 74 | |
| 20260505092504 | 61 | 303 | 0.0 | 1.7 | 0.00 | 0.13 | 0.01 | 75 | |
| 20260505092004 | 61 | 276 | 0.0 | 1.7 | 0.00 | 0.13 | 0.01 | 76 | |
| 20260505091504 | 61 | 225 | 0.0 | 1.7 | 0.00 | 0.13 | 0.01 | 77 | |
| 20260505091004 | 61 | 135 | 0.0 | 0.9 | 0.00 | 0.13 | 0.01 | 77 | |
| 20260505090504 | 60 | 198 | 0.0 | 1.7 | 0.00 | 0.13 | 0.01 | 78 | |
| 20260505090004 | 60 | 182 | 0.0 | 1.7 | 0.00 | 0.13 | 0.01 | 78 | |
| 20260505085504 | 60 | 152 | 0.0 | 1.7 | 0.00 | 0.13 | 0.01 | 79 | |
| 20260505085004 | 60 | 180 | 0.0 | 0.9 | 0.00 | 0.13 | 0.01 | 81 | |
| 20260505084504 | 60 | 163 | 0.0 | 0.9 | 0.00 | 0.13 | 0.01 | 82 | |
| 20260505084004 | 60 | 135 | 0.0 | 0.9 | 0.00 | 0.13 | 0.01 | 83 | |
| 20260505083504 | 60 | 135 | 0.0 | 0.9 | 0.00 | 0.13 | 0.01 | 83 | |
| 20260505083004 | 60 | 135 | 0.0 | 0.9 | 0.00 | 0.13 | 0.01 | 84 | |
| 20260505082504 | 60 | 135 | 0.0 | 0.9 | 0.01 | 0.13 | 0.01 | 85 | |
| 20260505082004 | 59 | 135 | 0.0 | 0.9 | 0.01 | 0.13 | 0.01 | 85 | |
| 20260505081504 | 59 | 0 | 0.0 | 0.0 | 0.01 | 0.13 | 0.01 | 86 | |
| 20260505081004 | 58 | 0 | 0.0 | 0.0 | 0.01 | 0.13 | 0.01 | 86 | |
| 20260505080504 | 58 | 0 | 0.0 | 0.0 | 0.01 | 0.13 | 0.01 | 87 | |
| 20260505080004 | 58 | 225 | 0.0 | 0.9 | 0.01 | 0.13 | 0.01 | 87 | |
| 20260505075504 | 58 | 247 | 0.0 | 0.9 | 0.01 | 0.13 | 0.01 | 87 | |
| 20260505075004 | 58 | 278 | 0.0 | 0.9 | 0.01 | 0.13 | 0.01 | 88 | |
| 20260505074504 | 58 | 360 | 0.0 | 0.9 | 0.01 | 0.13 | 0.01 | 88 | |
| 20260505074004 | 57 | 225 | 0.0 | 0.9 | 0.01 | 0.13 | 0.01 | 89 | |
| 20260505073504 | 57 | 176 | 0.0 | 0.9 | 0.01 | 0.13 | 0.01 | 89 | |
| 20260505073004 | 57 | 119 | 0.0 | 1.7 | 0.01 | 0.13 | 0.01 | 88 | |
| 20260505072504 | 56 | 130 | 0.0 | 1.7 | 0.00 | 0.12 | 0.00 | 88 | |
| 20260505072004 | 56 | 133 | 0.0 | 1.7 | 0.00 | 0.12 | 0.00 | 88 | |
| 20260505071504 | 56 | 130 | 0.9 | 1.7 | 0.00 | 0.12 | 0.00 | 89 | |
| 20260505071004 | 56 | 135 | 0.0 | 1.7 | 0.00 | 0.12 | 0.00 | 89 | |
| 20260505070504 | 56 | 135 | 0.0 | 1.7 | 0.00 | 0.12 | 0.00 | 89 | |
| 20260505070004 | 56 | 135 | 0.0 | 2.6 | 0.00 | 0.12 | 0.00 | 89 | |
| 20260505065504 | 56 | 135 | 0.0 | 2.6 | 0.00 | 0.12 | 0.00 | 90 | |
| 20260505065004 | 56 | 130 | 1.7 | 2.6 | 0.00 | 0.12 | 0.00 | 90 | |
| 20260505064504 | 56 | 127 | 0.0 | 1.7 | 0.00 | 0.12 | 0.00 | 90 | |
| 20260505064004 | 56 | 135 | 0.0 | 1.7 | 0.00 | 0.12 | 0.00 | 91 | |
| 20260505063504 | 56 | 135 | 0.0 | 1.7 | 0.00 | 0.12 | 0.00 | 91 | |
| 20260505063004 | 56 | 129 | 0.0 | 1.7 | 0.00 | 0.12 | 0.00 | 91 | |
| 20260505062504 | 56 | 166 | 0.0 | 1.7 | 0.00 | 0.12 | 0.00 | 91 | |
| 20260505062004 | 56 | 225 | 0.0 | 0.9 | 0.00 | 0.12 | 0.00 | 92 | |
| 20260505061504 | 56 | 164 | 0.0 | 1.7 | 0.00 | 0.12 | 0.00 | 92 | |
| 20260505061004 | 56 | 138 | 0.0 | 1.7 | 0.00 | 0.12 | 0.00 | 92 | |
| 20260505060504 | 55 | 135 | 0.0 | 1.7 | 0.00 | 0.12 | 0.00 | 93 | |
| 20260505060004 | 55 | 135 | 0.0 | 1.7 | 0.00 | 0.12 | 0.00 | 93 | |
| 20260505055504 | 55 | 135 | 0.0 | 1.7 | 0.00 | 0.12 | 0.00 | 93 | |
| 20260505055004 | 55 | 135 | 0.0 | 1.7 | 0.00 | 0.12 | 0.00 | 93 | |
| 20260505054504 | 55 | 135 | 0.9 | 1.7 | 0.00 | 0.12 | 0.00 | 93 | |
| 20260505054004 | 55 | 135 | 0.0 | 1.7 | 0.00 | 0.12 | 0.00 | 93 | |
| 20260505053504 | 55 | 315 | 0.0 | 0.9 | 0.00 | 0.12 | 0.00 | 93 | |
| 20260505053004 | 55 | 315 | 0.0 | 0.9 | 0.00 | 0.12 | 0.00 | 93 | |
| 20260505052504 | 55 | 0 | 0.0 | 0.0 | 0.00 | 0.12 | 0.00 | 93 | |
| 20260505052004 | 55 | 0 | 0.0 | 0.0 | 0.00 | 0.12 | 0.00 | 93 | |
| 20260505051504 | 54 | 315 | 0.0 | 0.9 | 0.00 | 0.12 | 0.00 | 93 | |
| 20260505051004 | 54 | 315 | 0.0 | 0.9 | 0.00 | 0.12 | 0.00 | 93 | |
| 20260505050504 | 54 | 310 | 0.0 | 0.9 | 0.00 | 0.12 | 0.00 | 93 | |
| 20260505041504 | 54 | 113 | 0.0 | 2.6 | 0.00 | 0.12 | 0.00 | 93 | |
| 20260505041004 | 54 | 123 | 0.9 | 1.7 | 0.00 | 0.12 | 0.00 | 93 | |
| 20260505040504 | 54 | 135 | 0.0 | 1.7 | 0.00 | 0.12 | 0.00 | 94 | |
| 20260505040004 | 54 | 135 | 0.0 | 1.7 | 0.00 | 0.12 | 0.00 | 94 | |
| 20260505035504 | 54 | 135 | 0.0 | 1.7 | 0.00 | 0.12 | 0.00 | 94 | |
| 20260505035004 | 54 | 130 | 0.0 | 3.5 | 0.00 | 0.12 | 0.00 | 94 | |
| 20260505034504 | 54 | 131 | 0.0 | 3.5 | 0.00 | 0.12 | 0.00 | 94 | |
| 20260505034004 | 54 | 135 | 0.0 | 1.7 | 0.00 | 0.12 | 0.00 | 94 | |
| 20260505033504 | 54 | 135 | 0.0 | 1.7 | 0.00 | 0.12 | 0.00 | 94 | |
| 20260505033004 | 54 | 144 | 0.0 | 1.7 | 0.00 | 0.12 | 0.00 | 95 | |
| 20260505032504 | 54 | 184 | 0.0 | 0.9 | 0.00 | 0.12 | 0.00 | 95 | |
| 20260505032004 | 54 | 151 | 0.0 | 1.7 | 0.00 | 0.12 | 0.00 | 95 | |
| 20260505031504 | 54 | 136 | 0.0 | 1.7 | 0.00 | 0.12 | 0.00 | 95 | |
| 20260505031004 | 54 | 135 | 0.0 | 0.9 | 0.00 | 0.12 | 0.00 | 96 | |
| 20260505030504 | 55 | 135 | 0.0 | 1.7 | 0.00 | 0.12 | 0.00 | 96 | |
| 20260505030004 | 55 | 137 | 0.0 | 1.7 | 0.00 | 0.12 | 0.00 | 96 | |
| 20260505025504 | 55 | 133 | 0.0 | 3.5 | 0.00 | 0.12 | 0.00 | 96 | |
| 20260505025004 | 55 | 132 | 0.0 | 3.5 | 0.00 | 0.12 | 0.00 | 96 | |
| 20260505024504 | 55 | 135 | 1.7 | 3.5 | 0.00 | 0.12 | 0.00 | 97 | |
| 20260505024004 | 55 | 135 | 0.0 | 1.7 | 0.00 | 0.12 | 0.00 | 96 | |
| 20260505023504 | 55 | 135 | 0.0 | 1.7 | 0.00 | 0.12 | 0.00 | 97 | |
| 20260505023004 | 55 | 135 | 0.0 | 1.7 | 0.00 | 0.12 | 0.00 | 97 | |
| 20260505022504 | 55 | 135 | 0.0 | 0.9 | 0.00 | 0.12 | 0.00 | 97 | |
| 20260505022004 | 55 | 122 | 0.0 | 1.7 | 0.00 | 0.12 | 0.00 | 97 | |
| 20260505021504 | 55 | 125 | 0.0 | 1.7 | 0.00 | 0.12 | 0.00 | 97 | |
| 20260505021004 | 55 | 132 | 0.0 | 1.7 | 0.00 | 0.12 | 0.00 | 97 | |
| 20260505020504 | 55 | 130 | 0.0 | 1.7 | 0.00 | 0.12 | 0.00 | 98 | |
| 20260505020004 | 55 | 118 | 0.0 | 1.7 | 0.00 | 0.12 | 0.00 | 98 | |
| 20260505015504 | 55 | 135 | 0.0 | 1.7 | 0.00 | 0.12 | 0.00 | 98 | |
| 20260505015003 | 55 | 135 | 0.0 | 1.7 | 0.00 | 0.12 | 0.00 | 98 | |
| 20260505014504 | 55 | 135 | 0.0 | 1.7 | 0.00 | 0.12 | 0.00 | 98 | |
| 20260505014004 | 55 | 135 | 0.0 | 1.7 | 0.00 | 0.12 | 0.00 | 98 | |
| 20260505013503 | 55 | 135 | 0.0 | 1.7 | 0.00 | 0.12 | 0.00 | 98 | |
| 20260505013004 | 55 | 135 | 0.0 | 0.9 | 0.00 | 0.12 | 0.00 | 98 | |
| 20260505012503 | 55 | 135 | 0.0 | 1.7 | 0.00 | 0.12 | 0.00 | 98 | |
| 20260505012004 | 55 | 135 | 0.0 | 1.7 | 0.00 | 0.12 | 0.00 | 98 | |
| 20260505011503 | 55 | 135 | 0.0 | 1.7 | 0.00 | 0.12 | 0.00 | 98 | |
| 20260505011004 | 55 | 135 | 0.0 | 1.7 | 0.00 | 0.12 | 0.00 | 98 | |
| 20260505010503 | 55 | 135 | 0.0 | 1.7 | 0.00 | 0.12 | 0.00 | 98 | |
| 20260505010004 | 55 | 148 | 0.0 | 1.7 | 0.00 | 0.12 | 0.00 | 98 | |
| 20260505005503 | 55 | 151 | 0.0 | 1.7 | 0.00 | 0.12 | 0.00 | 98 | |
| 20260505005004 | 55 | 147 | 0.0 | 0.9 | 0.00 | 0.12 | 0.00 | 97 | |
| 20260505004503 | 55 | 147 | 0.0 | 0.9 | 0.00 | 0.12 | 0.00 | 97 | |
| 20260505004004 | 55 | 135 | 0.0 | 0.9 | 0.00 | 0.12 | 0.00 | 97 | |
| 20260505003503 | 55 | 128 | 0.0 | 1.7 | 0.00 | 0.12 | 0.00 | 96 | |
| 20260505003003 | 55 | 130 | 0.0 | 1.7 | 0.00 | 0.12 | 0.00 | 96 | |
| 20260505002503 | 55 | 141 | 0.0 | 1.7 | 0.00 | 0.12 | 0.00 | 95 | |
| 20260505002003 | 55 | 140 | 0.0 | 1.7 | 0.00 | 0.12 | 0.00 | 95 | |
| 20260505001503 | 55 | 137 | 0.0 | 1.7 | 0.00 | 0.12 | 0.00 | 95 | |
| 20260505001003 | 55 | 135 | 0.0 | 1.7 | 0.00 | 0.12 | 0.00 | 94 | |
| 20260505000503 | 55 | 134 | 0.9 | 2.6 | 0.00 | 0.12 | 0.00 | 94 | |
| 20260505000004 | 55 | 133 | 0.9 | 2.6 | 0.00 | 0.12 | 0.00 | 94 | |
| 20260504235503 | 55 | 141 | 0.0 | 1.7 | 0.00 | 0.12 | 0.00 | 93 | |
| 20260504235003 | 55 | 141 | 0.0 | 1.7 | 0.00 | 0.12 | 0.00 | 93 | |
| 20260504234503 | 55 | 135 | 0.0 | 1.7 | 0.00 | 0.12 | 0.00 | 93 | |
| 20260504234003 | 56 | 135 | 0.0 | 1.7 | 0.00 | 0.12 | 0.00 | 93 | |
| 20260504233503 | 56 | 135 | 0.0 | 1.7 | 0.00 | 0.12 | 0.00 | 93 | |
| 20260504233003 | 56 | 135 | 0.0 | 1.7 | 0.00 | 0.12 | 0.00 | 93 | |
| 20260504232503 | 56 | 164 | 0.0 | 0.9 | 0.00 | 0.12 | 0.00 | 92 | |
| 20260504232003 | 56 | 225 | 0.0 | 0.9 | 0.00 | 0.12 | 0.00 | 92 | |
| 20260504231503 | 56 | 135 | 0.0 | 0.9 | 0.00 | 0.12 | 0.00 | 92 | |
| 20260504231003 | 56 | 135 | 0.0 | 0.9 | 0.00 | 0.12 | 0.00 | 92 | |
| 20260504230503 | 56 | 0 | 0.0 | 0.0 | 0.00 | 0.12 | 0.00 | 91 | |
| 20260504230004 | 56 | 0 | 0.0 | 0.0 | 0.00 | 0.12 | 0.00 | 91 | |
| 20260504225503 | 56 | 0 | 0.0 | 0.0 | 0.00 | 0.12 | 0.00 | 91 | |
| 20260504225003 | 56 | 0 | 0.0 | 0.0 | 0.00 | 0.12 | 0.00 | 91 | |
| 20260504224503 | 56 | 0 | 0.0 | 0.0 | 0.00 | 0.12 | 0.00 | 91 | |
| 20260504224003 | 56 | 0 | 0.0 | 0.0 | 0.00 | 0.12 | 0.00 | 90 | |
| 20260504223503 | 56 | 0 | 0.0 | 0.0 | 0.00 | 0.12 | 0.00 | 90 | |
| 20260504223003 | 57 | 0 | 0.0 | 0.0 | 0.00 | 0.12 | 0.00 | 90 | |
| 20260504222504 | 57 | 0 | 0.0 | 0.0 | 0.00 | 0.12 | 0.00 | 90 | |
| 20260504222003 | 57 | 0 | 0.0 | 0.0 | 0.00 | 0.12 | 0.00 | 90 | |
| 20260504221503 | 56 | 0 | 0.0 | 0.0 | 0.00 | 0.12 | 0.00 | 89 | |
| 20260504221003 | 56 | 0 | 0.0 | 0.0 | 0.00 | 0.12 | 0.00 | 89 | |
| 20260504220503 | 57 | 135 | 0.0 | 0.9 | 0.00 | 0.12 | 0.00 | 89 | |
| 20260504220004 | 57 | 135 | 0.0 | 0.9 | 0.00 | 0.12 | 0.00 | 89 | |
| 20260504215503 | 57 | 135 | 0.0 | 0.9 | 0.00 | 0.12 | 0.12 | 88 | |
| 20260504215003 | 57 | 135 | 0.0 | 0.9 | 0.00 | 0.12 | 0.12 | 88 | |
| 20260504214503 | 57 | 135 | 0.0 | 0.9 | 0.00 | 0.12 | 0.12 | 88 | |
| 20260504214003 | 57 | 135 | 0.0 | 0.9 | 0.00 | 0.12 | 0.12 | 88 | |
| 20260504213503 | 57 | 131 | 0.0 | 0.9 | 0.00 | 0.12 | 0.12 | 88 | |
| 20260504213003 | 58 | 127 | 0.0 | 1.7 | 0.00 | 0.12 | 0.12 | 88 | |
| 20260504212503 | 58 | 132 | 0.0 | 1.7 | 0.00 | 0.12 | 0.12 | 88 | |
| 20260504212003 | 58 | 135 | 0.0 | 1.7 | 0.00 | 0.12 | 0.12 | 87 | |
| 20260504211503 | 58 | 135 | 0.0 | 1.7 | 0.00 | 0.12 | 0.12 | 87 | |
| 20260504211003 | 58 | 135 | 0.0 | 0.9 | 0.00 | 0.12 | 0.12 | 87 | |
| 20260504210503 | 58 | 135 | 0.0 | 1.7 | 0.00 | 0.12 | 0.12 | 87 | |
| 20260504210004 | 58 | 135 | 0.0 | 1.7 | 0.00 | 0.12 | 0.12 | 87 | |
| 20260504205503 | 58 | 135 | 0.0 | 0.9 | 0.00 | 0.12 | 0.12 | 87 | |
| 20260504205003 | 58 | 135 | 0.0 | 0.9 | 0.00 | 0.12 | 0.12 | 86 | |
| 20260504204503 | 58 | 135 | 0.0 | 0.9 | 0.00 | 0.12 | 0.12 | 86 | |
| 20260504204003 | 58 | 135 | 0.0 | 1.7 | 0.00 | 0.12 | 0.12 | 86 | |
| 20260504203503 | 58 | 135 | 0.0 | 1.7 | 0.00 | 0.12 | 0.12 | 85 | |
| 20260504203003 | 58 | 135 | 0.0 | 1.7 | 0.00 | 0.12 | 0.12 | 85 | |
| 20260504202503 | 58 | 135 | 0.0 | 1.7 | 0.00 | 0.12 | 0.12 | 85 | |
| 20260504202003 | 58 | 135 | 0.9 | 1.7 | 0.00 | 0.12 | 0.12 | 85 | |
| 20260504201503 | 58 | 24 | 0.0 | 1.7 | 0.00 | 0.12 | 0.12 | 84 | |
| 20260504201003 | 58 | 356 | 0.0 | 1.7 | 0.00 | 0.12 | 0.12 | 84 |